Theta_e
322 323 324 323 325 327 327 327 328 326 321 320 321 322 322 323 318 318 319 320 324 327 328 330 331 331 333 331 327 324 322 316 314 316 318 319 318 318 319 320 320 323 323 323
322 324 322 322 324 325 327 327 328 327 316 317 320 321 321 322 324 324 319 319 320 324 326 328 329 326 332 332 332 328 324 318 316 316 315 315 316 317 319 321 325 326 326 322
321 320 321 323 323 325 327 328 326 328 319 320 320 322 323 323 323 321 321 318 319 320 324 326 328 326 329 331 332 331 329 324 318 317 317 317 318 319 322 324 326 326 324 324
320 319 321 321 323 323 326 325 325 326 325 329 321 325 325 324 324 322 320 319 317 317 320 324 326 327 324 328 332 332 330 329 325 319 319 319 320 321 324 325 325 325 325 324
321 319 322 323 324 323 325 323 324 320 322 322 325 324 323 322 324 323 323 321 319 318 317 320 324 324 323 325 327 330 331 330 329 326 322 319 320 322 324 326 327 327 326 324
318 317 320 322 323 322 317 318 318 317 322 326 324 324 324 323 321 322 324 323 322 320 318 317 320 323 324 325 325 326 329 330 330 330 328 327 326 325 326 327 328 328 327 325
319 320 314 319 322 317 319 322 323 326 325 326 318 323 323 321 319 320 320 319 320 322 320 318 318 321 322 322 321 321 324 327 329 331 330 328 328 328 328 327 328 329 328 327
321 320 316 319 321 319 321 322 320 323 323 321 311 320 321 321 320 319 319 320 318 317 319 319 317 317 320 322 322 322 321 320 324 327 327 328 328 329 329 328 329 330 330 329
318 319 314 318 316 318 319 323 318 316 307 316 316 316 316 316 314 313 313 314 315 315 314 316 316 316 317 320 323 323 323 323 324 323 323 326 327 327 328 328 329 330 330 328
316 317 314 310 316 315 318 317 321 319 318 320 319 319 319 315 315 314 313 315 314 315 313 313 313 313 314 313 313 315 317 318 320 323 324 324 324 324 326 329 330 330 330 331
315 316 314 313 318 317 317 319 320 320 320 320 319 317 312 316 314 313 309 310 312 311 310 310 311 310 310 310 310 311 311 312 313 314 317 322 324 325 327 329 330 331 331 331
315 314 314 315 311 315 317 319 318 321 319 317 317 316 311 309 308 311 310 311 311 311 311 312 313 313 312 312 310 310 310 310 311 311 311 314 319 324 325 326 329 331 332 331
313 314 315 314 311 310 317 317 318 315 314 315 316 316 311 308 309 310 310 311 311 311 311 312 313 312 312 312 312 310 310 309 309 309 310 310 311 314 320 323 324 325 329 327
314 314 314 316 316 313 315 316 317 317 315 316 317 316 309 308 309 309 311 311 314 315 314 314 312 311 311 310 310 311 310 310 309 309 309 309 309 310 311 314 319 320 325 326
314 312 314 314 314 314 315 317 317 318 317 317 316 316 315 314 313 315 314 315 315 314 313 312 311 311 311 310 310 310 310 309 310 309 309 309 310 311 313 316 317 318 321 323
312 312 310 307 313 314 314 315 315 317 317 316 315 315 314 315 315 315 315 314 313 312 312 312 311 310 310 310 309 309 309 309 309 309 309 309 309 311 311 311 311 311 310 310
313 311 313 309 309 310 310 313 314 314 315 316 316 315 311 311 313 314 314 313 313 312 312 311 310 309 309 309 308 308 308 308 309 309 309 309 309 309 310 310 310 310 310 310
312 310 310 309 310 311 310 312 313 313 313 313 314 314 313 312 314 314 314 312 312 311 310 310 309 308 307 308 308 308 308 308 308 309 309 309 309 309 309 309 310 310 311 311
310 311 309 311 312 311 309 307 313 313 313 313 313 313 313 314 314 313 313 312 311 310 309 308 307 307 307 307 307 307 308 308 308 308 309 309 309 309 309 309 310 312 312 312
311 311 311 312 308 311 311 307 311 310 310 311 312 312 312 313 312 309 311 309 307 307 307 307 307 308 307 307 307 307 307 307 307 307 308 308 308 308 308 308 310 311 312 312
311 311 312 309 306 308 308 306 311 308 307 309 312 312 312 309 311 311 308 307 306 307 308 308 308 308 308 308 307 307 307 307 307 306 306 306 307 306 306 307 308 311 311 311
311 312 312 305 304 308 306 308 309 308 308 308 310 311 312 311 309 308 306 306 306 307 306 306 306 306 307 307 307 307 307 307 307 306 306 306 306 306 306 306 306 308 309 310
309 310 310 310 307 306 307 309 309 310 308 307 309 309 310 309 307 306 305 305 305 305 305 304 304 304 305 305 305 306 306 306 307 306 306 305 305 304 304 303 303 304 305 307
306 307 305 305 306 304 307 307 309 309 309 308 308 308 308 307 305 304 304 303 303 303 303 303 303 303 303 304 304 304 304 305 305 305 305 305 304 303 303 302 302 301 301 301
304 305 303 303 303 304 306 307 308 307 308 308 308 308 307 306 304 304 302 302 302 303 303 303 303 303 303 303 303 304 304 304 304 304 304 303 303 302 301 299 298 298 298 297
303 305 306 305 304 306 307 307 306 306 307 307 308 306 305 305 305 302 301 301 301 301 300 300 300 300 300 300 300 300 301 302 302 302 302 302 301 301 300 299 299 297 297 297
Wind_Speed
20 8 17 16 14 9 10 11 11 8 7 6 9 9 11 18 16 13 13 14 19 22 20 23 28 27 27 25 25 28 29 28 29 31 30 29 29 25 23 22 20 19 17 14
6 21 15 14 14 10 6 11 11 4 7 3 6 10 9 15 15 19 22 21 19 19 21 25 26 30 34 34 31 31 31 30 31 31 31 30 28 26 24 24 22 22 17 16
18 12 16 17 17 15 10 10 9 6 4 2 5 9 10 9 19 22 24 24 21 23 24 27 29 27 34 37 37 36 34 34 33 33 31 30 29 28 27 27 27 25 21 18
14 18 22 20 19 14 17 4 5 5 3 2 2 5 4 5 17 17 25 24 25 25 28 30 32 32 33 38 38 38 37 37 35 34 35 35 36 36 34 31 28 27 23 22
11 14 23 20 19 17 3 9 5 4 4 4 4 3 4 6 5 7 23 29 33 33 32 34 35 36 34 35 41 42 40 40 38 38 38 38 38 37 33 31 28 26 24 25
4 3 14 12 12 12 12 10 8 5 3 5 7 7 5 6 8 5 9 23 37 36 35 35 36 36 36 35 38 40 42 42 41 41 41 41 40 39 37 34 31 30 30 28
6 4 3 8 11 18 6 10 3 2 3 7 5 9 11 10 11 3 5 7 10 21 34 33 33 35 37 38 38 40 41 43 43 43 43 43 42 41 40 36 34 35 34 32
14 10 8 8 12 8 13 13 5 7 5 4 2 7 5 14 9 12 11 16 13 11 15 28 31 33 36 37 37 39 41 43 44 44 45 44 43 44 44 40 38 40 39 35
15 6 6 9 6 13 4 6 3 5 1 3 5 6 7 7 8 9 12 10 13 14 13 12 20 25 27 31 34 36 39 42 43 44 43 45 46 46 46 45 42 41 40 38
11 7 3 1 11 2 9 10 4 2 6 5 5 5 5 6 10 10 11 11 9 9 9 7 11 18 23 27 30 33 36 39 40 41 43 44 46 46 46 45 44 42 42 42
18 7 3 5 8 13 8 8 5 5 3 4 0 5 2 9 9 8 10 8 7 7 5 4 1 2 5 13 21 27 30 32 34 37 40 43 44 44 44 44 41 39 41 42
3 6 9 4 1 7 8 11 6 5 5 2 3 5 3 8 8 13 14 12 12 10 8 7 12 8 7 9 6 14 22 27 29 33 37 39 41 43 46 44 42 40 41 41
10 7 9 3 5 3 17 16 16 5 3 6 5 5 5 13 10 9 13 8 5 1 6 12 17 12 13 14 14 12 12 19 24 28 32 37 41 44 45 45 43 40 39 41
9 7 6 14 17 9 9 14 13 5 3 5 12 8 6 8 8 11 10 7 2 7 14 15 12 10 12 17 18 17 16 15 17 23 27 30 35 39 39 37 35 35 35 36
6 5 5 5 15 16 25 26 22 20 24 12 21 19 12 6 5 7 7 8 10 11 12 12 16 16 17 19 21 18 18 18 17 17 19 21 25 29 29 29 29 29 31 33
5 5 5 6 6 16 21 20 23 29 28 16 6 11 7 5 3 5 8 11 13 10 10 12 16 20 21 24 23 18 16 16 15 16 15 17 19 23 25 25 26 28 30 32
7 6 4 2 4 8 1 27 27 25 21 24 13 14 7 6 5 7 12 12 9 11 13 18 22 21 22 20 17 15 15 17 17 15 15 16 18 19 20 22 24 26 29 30
9 5 4 3 3 2 7 20 20 24 23 24 19 4 8 13 16 13 11 11 15 18 19 21 19 18 15 16 15 15 14 14 14 15 15 16 17 18 19 21 23 24 24 24
9 6 4 6 6 4 4 5 21 17 17 21 25 15 17 22 18 19 16 16 14 15 15 13 10 9 9 9 9 9 9 10 12 14 14 15 17 18 19 19 19 20 20 20
5 7 4 4 6 11 1 9 25 6 6 15 19 17 19 20 10 3 12 9 5 5 5 4 3 2 3 4 5 6 6 6 7 9 11 14 16 17 18 17 18 18 18 19
8 8 12 5 4 6 6 7 27 8 7 20 33 27 19 7 12 11 11 7 6 4 4 4 3 4 4 4 4 4 5 6 8 10 11 12 14 15 15 17 17 18 19 20
9 11 8 3 3 10 12 15 16 6 4 13 16 23 22 20 17 17 13 10 9 7 5 5 6 6 6 6 6 6 6 7 8 9 10 11 12 13 15 16 16 19 22 22
4 8 9 12 6 4 31 22 16 19 17 15 20 19 22 23 19 17 15 14 12 9 7 6 6 6 6 6 7 8 8 9 9 10 10 10 10 10 11 13 15 18 20 22
2 5 5 5 5 8 26 12 20 19 24 23 20 21 20 23 21 19 18 16 14 11 8 6 5 5 5 6 6 7 8 10 11 12 13 12 11 10 10 12 14 16 17 19
4 6 7 1 1 7 19 22 31 19 20 23 20 18 19 22 23 21 19 15 12 10 8 6 4 4 6 7 7 7 7 8 8 9 10 11 12 12 11 11 11 12 14 16
3 6 8 5 16 10 22 35 25 27 26 25 25 24 21 21 23 21 18 14 12 10 9 8 7 7 8 8 9 9 10 10 11 12 13 14 14 14 14 14 13 14 15 15
Wind_Direction
185 186 202 188 192 232 189 181 186 231 181 161 228 248 242 240 213 204 230 249 207 213 218 213 213 205 199 217 218 217 224 217 211 211 211 217 222 222 223 230 233 232 241 238
162 217 193 194 194 221 256 197 209 282 121 147 268 264 238 226 240 230 218 224 232 215 209 217 226 211 205 206 214 220 225 223 221 221 224 226 230 233 235 231 233 236 243 240
199 194 196 210 195 199 217 199 209 207 134 209 279 271 234 246 238 236 237 220 224 227 217 215 225 223 209 210 211 215 223 226 225 226 227 228 231 233 233 231 235 233 237 239
215 213 194 201 203 193 202 150 70 93 102 209 11 289 270 235 227 221 224 229 223 227 223 220 222 228 219 218 215 220 222 226 229 227 229 230 232 232 236 239 240 237 237 236
178 198 188 196 196 184 174 140 110 72 84 32 200 272 270 224 267 251 218 224 227 228 226 222 222 234 231 224 219 222 224 227 229 230 232 235 235 239 242 244 243 240 238 239
132 251 183 189 183 173 130 95 59 45 53 257 197 219 245 213 229 239 228 218 225 229 229 230 230 233 235 230 228 226 226 228 230 231 234 236 239 239 240 240 238 238 236 236
136 157 114 184 162 141 140 153 109 178 204 239 139 213 240 275 282 276 278 275 237 243 229 228 228 230 234 234 232 230 229 231 231 233 236 239 240 243 245 245 242 238 238 238
154 187 187 175 170 176 167 176 161 176 193 205 242 236 250 221 239 247 241 247 255 257 233 234 230 234 238 240 238 234 234 236 235 235 240 243 244 243 248 248 245 246 249 248
171 144 174 155 138 149 182 188 36 97 101 65 202 249 288 232 241 233 243 247 253 253 247 226 227 234 239 242 244 243 243 242 240 241 242 243 246 247 247 250 247 249 249 251
146 114 243 125 131 272 181 147 133 258 152 217 243 231 226 194 221 225 244 223 232 211 221 244 238 231 235 243 247 247 248 248 249 245 245 246 248 250 251 250 249 245 246 248
147 113 182 152 201 165 157 186 192 131 201 177 117 255 253 200 178 161 102 99 121 141 128 116 167 315 275 252 246 246 246 247 249 249 248 248 249 250 250 251 246 243 245 247
104 107 148 158 342 179 186 172 168 169 208 237 125 260 123 97 88 108 106 102 111 106 104 57 6 353 342 339 299 253 253 253 251 249 247 244 244 245 246 244 241 243 245 248
157 143 127 105 348 210 204 178 198 102 78 199 145 260 173 106 99 96 128 117 125 348 313 324 336 335 336 330 318 304 276 258 254 251 250 247 242 241 243 245 246 245 245 247
113 158 162 192 200 122 188 191 191 170 154 157 221 179 121 145 155 158 169 184 268 305 312 317 328 334 337 334 323 305 300 287 269 259 255 251 249 247 247 249 250 249 248 251
124 132 178 164 160 167 179 183 183 198 218 188 229 225 223 190 198 151 178 248 289 302 304 317 331 333 331 331 330 316 308 301 294 284 272 261 253 255 253 253 253 252 248 248
159 136 115 2 162 165 184 184 191 201 214 224 242 270 196 180 183 203 268 287 286 300 302 311 316 317 317 316 315 308 304 302 290 280 275 266 258 256 258 256 256 254 251 250
140 128 119 156 79 88 326 199 199 209 206 216 210 226 120 126 144 191 243 263 269 275 290 302 306 306 307 307 304 297 296 292 291 282 269 262 263 260 260 264 265 263 262 260
145 96 78 138 114 190 251 179 204 210 208 217 233 203 194 205 237 250 250 272 278 284 287 287 290 296 294 294 297 289 289 288 282 274 267 265 266 269 270 269 269 268 264 262
137 100 106 149 209 284 206 210 190 182 222 218 224 226 231 246 256 258 266 268 269 275 275 280 291 297 294 292 295 293 303 303 297 289 279 274 273 275 275 276 276 276 273 266
119 123 111 149 158 210 216 173 181 100 263 204 209 214 219 218 228 188 226 245 237 249 258 260 271 293 310 316 311 299 297 295 288 278 271 265 265 267 271 275 274 273 268 267
156 177 190 176 208 262 201 165 131 147 234 196 205 209 199 178 214 198 189 181 184 177 140 112 105 71 40 15 351 330 321 312 302 289 279 270 265 267 270 271 270 268 268 263
166 164 188 128 152 253 168 146 156 193 162 173 175 199 195 190 174 173 173 182 177 164 144 136 104 77 53 37 25 20 4 353 334 318 311 304 296 287 279 275 272 266 267 267
157 196 171 190 192 211 170 170 180 176 165 172 169 174 181 172 172 177 178 174 166 156 152 130 104 86 67 43 20 8 359 347 337 331 327 319 308 298 289 282 279 276 271 271
209 152 146 108 205 167 184 170 174 178 183 170 167 163 171 175 176 172 169 165 163 153 147 118 100 86 68 54 28 7 357 346 338 336 334 329 327 329 319 304 294 285 282 280
189 123 148 103 11 81 182 194 197 183 178 174 169 169 169 168 165 170 167 164 157 151 141 135 120 88 61 45 30 19 5 354 349 347 344 338 335 335 331 326 320 310 301 291
186 166 180 215 175 173 196 196 192 187 179 179 172 165 166 174 168 164 159 152 147 139 125 114 93 74 63 49 33 26 20 14 12 11 8 5 360 353 344 338 333 330 323 312